This demonstration page uses our WeatherBlox Daily Observations layout. Learn more.

Left ArrowRight Arrow

47.50024, -111.30081

Hourly Observations for May 28, 2019

Temp ( °F °C ) Dew Point ( °F °C ) Humidity (%) Winds ( mph kmh ) Pressure ( in mb ) Visibility ( mi km ) Precip ( " mm )
12:53 am 00:53 Cloudy with Mist and Fog 47 8.3 47 8.3 100 100 W 3 6 30.04 1017 4 6 0.00 0.00
1:53 am 01:53 Cloudy with Mist and Fog 46 7.8 46 7.8 100 100 W 3 6 30.03 1017 4 6 0.00 0.00
2:18 am 02:18 Cloudy with Mist and Fog 44 6.7 44 6.7 100 100 SSW 7 11 30.01 1016 3 4 0.00 0.00
2:27 am 02:27 Mostly Cloudy with Mist and Fog 44 6.7 44 6.7 100 100 SSW 7 11 30.01 1016 2 3 0.00 0.00
2:29 am 02:29 Mostly Cloudy with Mist and Fog 44 6.7 44 6.7 100 100 SSW 7 11 30.01 1016 1 2 0.00 0.00
2:34 am 02:34 Mostly Cloudy with Fog 44 6.7 44 6.7 100 100 SSW 6 9 30.01 1016 0 0 0.00 0.00
2:49 am 02:49 Mostly Cloudy with Fog 43 6 43 6 100 100 SSW 6 9 30.02 1017 0 0 0.00 0.00
2:53 am 02:53 Cloudy with Fog 43 6.1 43 6.1 100 100 SSW 6 9 30.04 1017 0 0 0.00 0.00
3:07 am 03:07 Cloudy with Fog 43 6.1 43 6.1 100 100 SW 6 9 30.02 1017 1 1 0.00 0.00
3:29 am 03:29 Cloudy with Mist and Fog 43 6.1 43 6.1 100 100 W 5 7 30.02 1017 2 2 0.00 0.00
3:33 am 03:33 Cloudy with Mist and Fog 43 6.1 43 6.1 100 100 W 3 6 30.02 1017 3 5 0.00 0.00
3:53 am 03:53 Cloudy with Mist and Fog 43 6.1 43 6.1 100 100 WSW 3 6 30.04 1017 5 8 0.00 0.00
4:53 am 04:53 Cloudy with Mist and Fog 44 6.7 44 6.7 100 100 W 3 6 30.04 1017 5 8 0.00 0.00
5:53 am 05:53 Cloudy 43 6.1 43 6.1 100 100 W 3 6 30.06 1018 9 14 0.00 0.00
6:53 am 06:53 Mostly Cloudy 47 8.3 45 7.2 93 93 WNW 3 6 30.05 1018 10 16 0.00 0.00
7:53 am 07:53 Sunny 50 10 45 7.2 83 83 NW 3 6 30.05 1018 10 16 0.00 0.00
8:53 am 08:53 Sunny 52 11.1 46 7.8 80 80 Calm 30.05 1018 10 16 0.00 0.00
9:53 am 09:53 Mostly Sunny 54 12.2 45 7.2 72 72 Calm 30.05 1018 10 16 0.00 0.00
10:53 am 10:53 Mostly Sunny 57 13.9 45 7.2 64 64 Calm 30.05 1018 10 16 0.00 0.00
11:53 am 11:53 Mostly Cloudy 60 15.6 40 4.4 47 47 VRB 5 7 30.05 1018 10 16 0.00 0.00
12:53 pm 12:53 Partly Cloudy 59 15 36 2.2 42 42 E 7 11 30.05 1018 10 16 0.00 0.00
1:53 pm 13:53 Sunny 62 16.7 35 1.7 37 37 ENE 3 6 30.04 1017 10 16 0.00 0.00
2:53 pm 14:53 Sunny 65 18.3 37 2.8 36 36 N 8 13 30.02 1017 10 16 0.00 0.00
3:53 pm 15:53 Sunny 65 18.3 35 1.7 33 33 NNW 5 7 30.01 1016 10 16 0.00 0.00
4:53 pm 16:53 Sunny 65 18.3 35 1.7 33 33 Calm 30.00 1016 10 16 0.00 0.00
5:53 pm 17:53 Sunny 65 18.3 34 1.1 32 32 Calm 29.99 1016 10 16 0.00 0.00
6:53 pm 18:53 Sunny 65 18.3 35 1.7 33 33 E 3 6 29.98 1015 10 16 0.00 0.00
7:53 pm 19:53 Sunny 63 17.2 35 1.7 35 35 ESE 8 13 29.98 1015 10 16 0.00 0.00
8:53 pm 20:53 Sunny 58 14.4 37 2.8 46 46 ESE 6 9 29.99 1016 10 16 0.00 0.00
9:53 pm 21:53 Clear 53 11.7 38 3.3 57 57 E 7 11 30.01 1016 10 16 0.00 0.00
10:53 pm 22:53 Clear 52 11.1 40 4.4 64 64 ESE 8 13 30.01 1016 10 16 0.00 0.00
11:53 pm 23:53 Clear 50 10 38 3.3 63 63 SE 7 11 30.00 1016 10 16 0.00 0.00

Powered by AerisWeather